Regional Weather Roundup
Issued by NWS

Home | Current Version | Previous Version | Text Only | Print | Product List | Glossary On
Versions: 1 2 3 4 5 6 7 8 9 10 11 12 13 14 15 16 17 18 19 20 21 22 23 24 25 26 27 28 29 30 31 32 33 34 35 36 37 38 39 40 41 42 43 44 45 46 47 48 49 50
000
ASPQ40 PGUM 111012
RWRPQ
WEATHER ROUNDUP FOR THE MARIANAS AND MICRONESIA
NATIONAL WEATHER SERVICE TIYAN GU
800 PM CHST FRI JUL 11 2014

GUZ001>004-111100-
MARIANA ISLANDS-

CITY           SKY/WX    TMP DP  RH WIND       PRES   REMARKS
GUAM AIRPORT   PTCLDY    79  75  89 NW3       29.83S
ANDERSEN AFB   NOT AVBL
ROTA AIRPORT   MOCLDY    79  77  94 CALM      29.84R
TINIAN AP      LGT RAIN  81  77  89 E5        29.80R
SAIPAN AP      MOCLDY    82  79  89 N3        29.82R HX  93

$$

PMZ161-111100-
REPUBLIC OF PALAU-

CITY           SKY/WX    TMP DP  RH WIND       PRES   REMARKS
KOROR AP       NOT AVBL
KOROR WSO      CLOUDY    81  75  83 W9        29.81R

$$

PMZ171>174-111100-
FEDERATED STATES OF MICRONESIA-

CITY           SKY/WX    TMP DP  RH WIND       PRES   REMARKS
YAP AIRPORT    PTCLDY    81  73  78 VRB5      29.81R
CHUUK AP       CLOUDY    81  79  94 NE7       29.83R
POHNPEI AP     NOT AVBL
POHNPEI WSO    TSTM      79  77  94 N5        29.89R
KOSRAE AP      NOT AVBL

$$

PMZ181-111100-
REPUBLIC OF THE MARSHALL ISLANDS-

CITY           SKY/WX    TMP DP  RH WIND       PRES   REMARKS
KWAJALEIN AP   CLOUDY    79  73  83 CALM      29.87R
MAJURO AP      NOT AVBL
MAJURO WSO     MOCLDY    82  77  83 E6        29.83S HX  91

$$




USA.gov is the U.S. government's official web portal to all federal, state and local government web resources and services.